Location: Godiavel Galaoual
(15.2485°N, 12.6604°W)
Time: 01:37:20
(UTC+00:00)

Transit 4A - Pass Details

Date: 18 June 2021
Orbit: 872 x 972 km, 66.8° (Epoch: 29 July)

Event Time Altitude Azimuth Distance (km) Brightness Sun altitude
Rises 09:12:24 0° 189° (S) 3,613 10.8 37.9°
Reaches altitude 10° 09:15:01 10° 185° (S) 2,655 10.2 38.5°
Maximum altitude 09:21:01 54° 109° (ESE) 1,115 9.7 39.9°
Drops below altitude 10° 09:26:52 10° 33° (NNE) 2,590 11.0 41.2°
Sets 09:29:23 0° 29° (NNE) 3,517 11.4 41.8°
